Weather History for KLHQ - November, 2012

Change the Weather History Date:

Thursday, November 22, 2012

  Actual Average Record
Temperature  
Mean Temperature 44 °F -  
Max Temperature 63 °F 46 °F 71 °F (1979)
Min Temperature 26 °F 29 °F 10 °F (1964)
Degree Days  
Heating Degree Days 20    
Moisture  
Dew Point 30 °F    
Average Humidity 78    
Maximum Humidity 100    
Minimum Humidity 38    
Precipitation  
Precipitation 0.00 in - - ()
Sea Level Pressure  
Sea Level Pressure 30.18 in    
Wind  
Wind Speed 1 mph (SSW)    
Max Wind Speed 12 mph    
Max Gust Speed 17 mph    
Visibility 6 miles    
Events      
Averages and records for this station are not official NWS values.
T = Trace of Precipitation, MM = Missing Value Source: NWS Daily Summary

Daily Weather History Graph

Daily Weather History Graph

Search for Another Location

Airport or City:

Trip Planner

Search our weather history database for the weather conditions in past years. The results will help you decide how hot, cold, wet, or windy it might be!

Date:

Astronomy

Nov. 22, 2012 Rise Set
Actual Time 7:23 AM EST 5:09 PM EST
Civil Twilight 6:54 AM EST 5:39 PM EST
Nautical Twilight 6:21 AM EST 6:12 PM EST
Astronomical Twilight 5:48 AM EST 6:44 PM EST
Moon 1:54 PM EST (11/22) 1:43 AM EST (11/22)
Length of Visible Light 10h 45m
Length of Day
9h 46m
Waxing Gibbous, 71% of the Moon is Illuminated
Nov 22
Waxing Gibbous
Nov 28
Full
Dec 6
Last Quarter
Dec 13
New
Dec 20
First Quarter

Hourly Weather History & Observations

Time (EST) Temp. Windchill Dew Point Humidity Pressure Visibility Wind Dir Wind Speed Gust Speed Precip Events Conditions
12:53 AM 30.0 °F - 28.0 °F 92% 30.23 in 8.0 mi Calm Calm - N/A   Clear
1:53 AM 30.0 °F - 27.0 °F 88% 30.23 in 4.0 mi Calm Calm - N/A   Clear
2:14 AM 28.4 °F - 26.6 °F 93% 30.22 in 2.0 mi Calm Calm - N/A   Clear
2:21 AM 28.4 °F - 26.6 °F 93% 30.22 in 1.8 mi Calm Calm - N/A   Clear
2:36 AM 28.4 °F - 26.6 °F 93% 30.22 in 5.0 mi Calm Calm - N/A   Clear
2:53 AM 28.9 °F - 27.0 °F 92% 30.24 in 8.0 mi Calm Calm - N/A   Clear
3:53 AM 28.9 °F - 26.1 °F 89% 30.23 in 4.0 mi Calm Calm - N/A   Clear
4:02 AM 28.4 °F - 26.6 °F 93% 30.22 in 2.0 mi Calm Calm - N/A   Partly Cloudy
4:04 AM 28.4 °F - 26.6 °F 93% 30.22 in 1.0 mi Calm Calm - N/A   Mist
4:11 AM 26.6 °F - 26.6 °F 100% 30.22 in 0.8 mi Calm Calm - N/A   Mist
4:13 AM 26.6 °F - 24.8 °F 93% 30.22 in 1.2 mi Calm Calm - N/A   Clear
4:15 AM 26.6 °F - 24.8 °F 93% 30.22 in 4.0 mi Calm Calm - N/A   Clear
4:53 AM 27.0 °F - 24.1 °F 89% 30.24 in 6.0 mi Calm Calm - N/A   Clear
5:53 AM 28.0 °F - 25.0 °F 88% 30.25 in 6.0 mi Calm Calm - N/A   Clear
6:53 AM 26.1 °F - 24.1 °F 92% 30.26 in 3.0 mi Calm Calm - N/A   Clear
7:13 AM 26.6 °F - 24.8 °F 93% 30.24 in 2.0 mi Calm Calm - N/A   Clear
7:20 AM 26.6 °F - 24.8 °F 93% 30.24 in 1.0 mi Calm Calm - N/A   Clear
7:30 AM 26.6 °F - 24.8 °F 93% 30.23 in 3.0 mi Calm Calm - N/A   Clear
7:53 AM 27.0 °F - 25.0 °F 92% 30.26 in 5.0 mi Calm Calm - N/A   Clear
8:53 AM 37.0 °F 34.5 °F 33.1 °F 86% 30.26 in 7.0 mi South 3.5 mph - N/A   Clear
9:53 AM 44.1 °F 42.5 °F 36.0 °F 73% 30.24 in 9.0 mi SSE 3.5 mph - N/A   Clear
10:53 AM 55.0 °F - 39.9 °F 57% 30.22 in 10.0 mi Variable 3.5 mph - N/A   Clear
11:53 AM 60.1 °F - 37.0 °F 42% 30.20 in 10.0 mi SW 11.5 mph - N/A   Clear
12:53 PM 62.1 °F - 37.9 °F 41% 30.17 in 10.0 mi SSW 11.5 mph - N/A   Clear
1:53 PM 63.0 °F - 37.0 °F 38% 30.14 in 10.0 mi SW 11.5 mph 17.3 mph N/A   Clear
2:53 PM 63.0 °F - 37.0 °F 38% 30.12 in 10.0 mi WSW 8.1 mph - N/A   Clear
3:53 PM 62.1 °F - 37.9 °F 41% 30.12 in 10.0 mi SSW 5.8 mph - N/A   Clear
4:53 PM 57.0 °F - 37.0 °F 47% 30.11 in 10.0 mi South 4.6 mph - N/A   Clear
5:53 PM 46.9 °F - 35.1 °F 63% 30.11 in 10.0 mi Calm Calm - N/A   Clear
6:53 PM 41.0 °F - 33.1 °F 73% 30.10 in 10.0 mi Calm Calm - N/A   Clear
7:53 PM 39.9 °F 37.8 °F 33.1 °F 77% 30.09 in 10.0 mi South 3.5 mph - N/A   Clear
8:53 PM 42.1 °F - 34.0 °F 73% 30.06 in 10.0 mi Calm Calm - N/A   Clear
9:53 PM 41.0 °F - 34.0 °F 76% 30.06 in 10.0 mi Calm Calm - N/A   Clear
10:53 PM 39.0 °F - 34.0 °F 82% 30.04 in 10.0 mi Calm Calm - N/A   Clear
11:53 PM 41.0 °F 38.0 °F 33.1 °F 73% 30.02 in 10.0 mi South 4.6 mph - N/A   Clear